GOES 1 [-] 1 08366U 75100A 12136.51755735 -.00000256 00000-0 10000-3 0 42 2 08366 13.9758 338.5672 0003004 71.9223 288.0504 1.00261863133611 GOES 2 [-] 1 10061U 77048A 12134.89045306 -.00000313 00000-0 10000-3 0 1714 2 10061 14.6680 347.1020 0011263 290.5401 69.2940 0.99402072 72356 GOES 3 [P] 1 10953U 78062A 12136.62319203 -.00000111 00000-0 10000-3 0 8199 2 10953 14.5626 350.7332 0007537 65.6906 294.3353 1.00266552 77337 GOES 4 [-] 1 11964U 80074A 12135.94029945 -.00000332 00000-0 10000-3 0 3946 2 11964 15.0883 354.3978 0034129 332.2267 27.5510 0.99233107 76570 GOES 5 [-] 1 12472U 81049A 12126.61948889 -.00000244 00000-0 10000-3 0 3059 2 12472 14.5269 4.7184 0003391 68.3692 291.6218 1.00220214 71277 GOES 6 [-] 1 14050U 83041A 12136.59494166 -.00000264 00000-0 10000-3 0 3095 2 14050 14.4073 9.5322 0006270 51.9522 308.0405 1.00248443164479 GOES 7 [-] 1 17561U 87022A 12135.49545530 -.00000234 00000-0 10000-3 0 4850 2 17561 13.8392 26.0750 0005897 343.9083 198.0479 0.99910407 75567 GOES 8 [-] 1 23051U 94022A 12135.11212295 -.00000285 00000-0 10000-3 0 1254 2 23051 8.2457 59.4863 0002546 249.9957 109.8596 0.98907909 73229 GOES 9 [P] 1 23581U 95025A 12134.49462450 -.00000162 00000-0 10000-3 0 4039 2 23581 7.7845 57.7661 0008995 358.0478 1.8273 0.98802363 61917 GOES 10 [-] 1 24786U 97019A 12134.33469422 .00000061 00000-0 10000-3 0 3419 2 24786 6.0154 60.9953 0022751 95.1362 264.9189 0.99120639 55042 GOES 11 [+] 1 26352U 00022A 12134.92002535 -.00000099 00000-0 00000+0 0 7940 2 26352 1.1398 125.6331 0005495 321.0509 39.3312 0.99041210 44034 GOES 12 [B] 1 26871U 01031A 12135.36331116 -.00000296 00000-0 10000-3 0 5780 2 26871 2.1861 73.3172 0004081 8.7424 221.5798 1.00272950 39658 GOES 13 [+] 1 29155U 06018A 12134.36671773 -.00000265 00000-0 10000-3 0 672 2 29155 0.2508 251.1437 0005351 169.2043 228.0742 1.00279511 21892 GOES 14 [S] 1 35491U 09033A 12135.41465726 -.00000098 00000-0 00000+0 0 4604 2 35491 0.1386 91.3292 0006667 354.3587 190.5261 1.00272189 10575 GOES 15 [S] 1 36411U 10008A 12135.71268287 .00000078 00000-0 10000-3 0 706 2 36411 0.1948 76.0254 0001032 9.5249 268.4443 1.00269024 8078